Regional Weather Roundup
Issued by NWS

Current Version | Previous Version | Text Only | Print | Product List | Glossary On
Versions: 1 2 3 4 5 6 7 8 9 10 11 12 13 14 15 16 17 18 19 20 21 22 23 24 25 26 27 28 29 30 31 32 33 34 35 36 37 38 39 40 41 42 43 44 45 46 47 48
000
ASUS45 KCYS 040710
RWRWY

WYOMING REGIONAL WEATHER ROUNDUP
NATIONAL WEATHER SERVICE CHEYENNE WY
100 AM MDT TUE OCT 04 2022

NOTE:  "FAIR" INDICATES FEW OR NO CLOUDS BELOW 12,000 FEET
WITH NO SIGNIFICANT WEATHER AND/OR OBSTRUCTIONS TO VISIBILITY.

WYZ001-040800-
...YELLOWSTONE NATIONAL PARK...

CITY           SKY/WX    TMP DP  RH WIND       PRES   REMARKS
LK YELLOWSTONE   N/A     29  29 100 NW3       30.38F
W YELLOWSTONE  NOT AVBL

$$
WYZ002>013-054>058-071-098>099-040800-
...NORTHERN WYOMING...

CITY           SKY/WX    TMP DP  RH WIND       PRES   REMARKS
JACKSON        CLEAR     39  37  92 CALM      30.33S
CODY           CLEAR     47  43  86 SW9       30.27F
GREYBULL       PTCLDY    50  46  86 CALM      30.21F
WORLAND        CLOUDY    53  48  83 MISG      30.23S
SHERIDAN       MOCLDY    48  46  93 S3        30.21F
BUFFALO        MOCLDY    49  44  83 SW3       30.24F
GILLETTE       CLOUDY    48  46  93 W6        30.22F
HULETT         CLOUDY    48  46  93 SW5       30.22F
NEWCASTLE      MOCLDY    48  43  81 NW7       30.21S

$$
WYZ014>020-022>026-101>103-040800-
...CENTRAL WYOMING...

CITY           SKY/WX    TMP DP  RH WIND       PRES   REMARKS
BIG PINEY      CLEAR     39  34  82 N10       30.32F WCI  32
PINEDALE       CLEAR     34  32  93 NW6       30.33F WCI  29
DUBOIS         CLEAR     37  32  81 W6        30.33S WCI  33
LANDER         CLEAR     47  39  74 CALM      30.27F
RIVERTON       PTCLDY    47  42  83 NE5       30.28F
CASPER         LGT RAIN  47  42  83 W5        30.27S
DOUGLAS        MOCLDY    45  42  89 NW6       30.25F

$$
WYZ021-027>030-104>119-040800-
...SOUTHERN WYOMING...

CITY           SKY/WX    TMP DP  RH WIND       PRES   REMARKS
EVANSTON       CLEAR     48  31  51 VRB3      30.32F
KEMMERER       CLEAR     41  32  70 N13       30.33S
FORT BRIDGER   NOT AVBL
ROCK SPRINGS   MOCLDY    49  38  65 N6        30.28F
DIXON          CLOUDY   N/A N/A N/A E7G20     30.31F
RAWLINS        CLOUDY    47  40  76 NE7       30.29S
SARATOGA       PTCLDY    37  37 100 CALM      30.30F
LARAMIE        PTCLDY    39  35  86 W5        30.29F
CHEYENNE       CLEAR     45  40  82 W10       30.25S
TORRINGTON     PTCLDY    52  49  89 N7        30.19R
PINE BLUFFS    PTCLDY    46  46 100 W5        30.22S

$$



USA.gov is the U.S. government's official web portal to all federal, state and local government web resources and services.